COSMOS 252 DEB, 18431

Orbit data source: Space-Track

COSMOS 252 DEB, 18431 is space debris in LEO originally from a launch on Fri, 01 Nov 1968 UTC launched from the Tyuratam Missile And Space Complex (TTMTR). Debris objects in space refer to the collection of defunct objects orbiting the Earth. Examples of debris include non-operational satellites, rocket bodies, and fragments generated from explosions, collisions, or faulty payload assembly.

Loading next visibility...
Identifier
18431, 1968-097EJ
Orbit
LEO
Country
Flag of CISCIS
Related business
Manufacturer
Unknown
Mission
Spacecraft
Bus & Motor
Unknown
Mass
Unknown
Launch date (UTC)
1968-11-01 (57 years ago)
Launch vehicle
Unknown
Launch site
Tyuratam Missile And Space Complex (TTMTR)
Object type
Payload
Rocket body
Debris
Shape & HBR
Unknown shape, 0.1 m
Radar Cross Section
Small (<0.1 m²)

Expand to show TLE details & history
Last TLE update: 2 days ago

TLE from 2 days ago
0 COSMOS 252 DEB
1 18431U 68097EJ  26120.52921373  .00001010  00000-0  36289-3 0  9993
2 18431  62.3473 204.3018 0861008 147.5930 218.1094 13.20365279442052
Epoch: 2026-04-30T12:42Z
TLE epoch observation values (Epoch: 2026-04-30T12:42:04.066Z)
Latitude
0.00001°
Longitude
155.31035°
Altitude
1,716.659 km
Speed
6.768 km/s
True Right ascension
13h 37m 12s
True Declination
0° 00' 00"
Sunlit
Object was in full shadow at epoch
Visualization orbit readout
Latitude
Unknown
Longitude
Unknown
Altitude
Unknown
Speed
Unknown
Apparent Right ascension
Unknown
Apparent Declination
Unknown
Sunlit
N/A
Visualization observer readout
Local Sidereal Time
14:38:26
Azimuth
Unknown
Elevation
Unknown
Doppler factor
Unknown
Orbital elements
Apogee altitude
1,833.247 km
Perigee altitude
531.329 km
Semi-major axis
7,560.425 km
Eccentricity
0.0861
Inclination
62.3473°
RAAN
204.3018°
Arg. of periapsis
147.593°
True anomaly
212.50573°
Mean anomaly
218.1094°
Eccentric anomaly
215.26142°
Mean motion
3.3016 °/min
Orbital period
109.04 mins
BSTAR
0.00036289
Loading maneuver chart data...
Computing Atmospheric mass density...

Documentation

Showing up to 5 results
|